"Pseudo-MPEC" for P21Dfvp

Created 2023 Jan 27 17:22:24 UT using Find_Orb

Click here for an explanation of pseudo-MPECs

 
 Astrometry: 
     P21Dfvp  C2023 01 19L\RkEdUlUytc@$h3_p;beM0Xsr5j.A5T+jFaE\c?:RM7JBS5JVF(F52
     P21Dfvp  C2023 01 19)!?//`D=Fid-icCR]]^7ePa-]PWmP`wo;p$J0h0E,r4I;A,SYwc8F52
     P21Dfvp  C2023 01 19%Gi]:swkh8;F#*6Hj.]:JXW7xu!j37p-hbuWvC]y'NGr\^f`f=.lF52
     P21Dfvp  C2023 01 19c/GeB^[)'w%-/U*lTf@U8W:$=0D5rc'[LNHg6Rn31UBf:itZcOr@F52
     P21Dfvp* C2023 01 25Cv^.tM]TAstrometryc]p2$,dLtu[pau_[UIredacted;d'C.W[RF52
     P21Dfvp  C2023 01 25.v5clyceXoO*C$e:?;yJRF/'Ba6sQSe*-(oeRxou45AOiuk9,k@;F52
     P21Dfvp  C2023 01 25MW=ibJ/lclickW7;vi9E?oYT6cCeci$I4xdaouX^](G)_9D[\7Z!F52
     P21Dfvp  C2023 01 25`:Vv#Sa@v@ier-LA)+Z@g'JM@Hb#:Chere$74Q:forB84r2W]_ddF52
     P21Dfvp  C2023 01 25GI`h6hl=b:Z?T#x/nf`b.Rv[?S$q\^?+E-vgy9)msIPG1D3K`v#\F52
     P21Dfvp  C2023 01 25WBiO;2_Zq^AmKt-TAZWC1$./explanation8Yp47,E3Pt4k`M%X1F52

Station data:
(F52) Pan-STARRS 2, Haleakala  (N20.707382 W156.255910)  US/Hawaii.
   Observers J. Bulger, T. Dukes, T. Lowe, A. Schultz, M. Willman. Measurers
   K. Chambers, S. Chastel, T. de Boer, L. Denneau, J. Fairlamb, H.
   Flewelling, M. Huber, C.-C. Lin, E. Magnier, Y. Ramanjooloo, R. Wainscoat,
   R. Weryk. 1.8-m Ritchey-Chrétien + CCD.

Orbital elements:  P21Dfvp
   Perihelion 2022 Jul 3.29730 +/- 178 TT =  7:08:06 (JD 2459763.79730)
Epoch 2023 Jan 25.0 TT = JDT 2459969.5   Earth MOID: 0.8849      AutoNEOCP
M  74.21948868 +/- 60               (J2000 ecliptic)
n   0.36080949 +/- 0.0553           Peri.  257.48433 +/- 70
a   1.95411780 +/- 0.2              Node   145.13347 +/- 3.8
e   0.0757199 +/- 0.0622            Incl.   29.35463 +/- 7
P   2.73/997.74d           H 19.38  G  0.15   U 10.8  SR
q 1.80615212 +/- 0.235    Q 2.10208347 +/- 0.273
From 10 observations 2023 Jan. 19-25; mean residual 0".24
Residuals in arcseconds: 
230119 F52  .09+  .18+    230125 F52  .35+  .15-    230125 F52  .49-  .18+    
230119 F52  .04+  .06-    230125 F52  .28+  .12-    230125 F52  .59-  .24+    
230119 F52  .02-  .13-    230125 F52  .33+  .04-    
230119 F52  .13-  .02+    230125 F52  .13+  .12-    

Ephemerides (geocentric):
Date (UTC) HH   RA             Dec           delta  r     elong  mag " sig PA
---- --------  ------------   ------------  ------ ------ -----  --- --------
2023 01 27 17  08 31 17.391   +00 01 28.03  .96780 1.9271 161.5 21.4 43.1  54
2023 01 27 18  08 31 14.532   +00 02 31.73  .96777 1.9271 161.5 21.4 44.1  54
2023 01 27 19  08 31 11.673   +00 03 35.47  .96775 1.9271 161.5 21.4 45.1  54
2023 01 27 20  08 31 08.813   +00 04 39.24  .96772 1.9272 161.5 21.4 46.2  54
2023 01 27 21  08 31 05.954   +00 05 43.04  .96769 1.9272 161.6 21.4 47.2  54
2023 01 27 22  08 31 03.095   +00 06 46.88  .96766 1.9272 161.6 21.4 48.3  54
2023 01 27 23  08 31 00.236   +00 07 50.76  .96763 1.9273 161.6 21.4 49.4  54
2023 01 28 00  08 30 57.377   +00 08 54.66  .96761 1.9273 161.6 21.4 50.5  54
2023 01 28 01  08 30 54.518   +00 09 58.61  .96758 1.9274 161.6 21.4 51.6  54
2023 01 28 02  08 30 51.660   +00 11 02.58  .96755 1.9274 161.7 21.4 52.7  54
2023 01 28 03  08 30 48.801   +00 12 06.59  .96753 1.9274 161.7 21.4 53.8  54
2023 01 28 04  08 30 45.943   +00 13 10.64  .96750 1.9275 161.7 21.4 54.9  54
2023 01 28 05  08 30 43.084   +00 14 14.71  .96748 1.9275 161.7 21.4 56.0  54
2023 01 28 06  08 30 40.226   +00 15 18.82  .96746 1.9276 161.8 21.4 57.2  54
2023 01 28 07  08 30 37.368   +00 16 22.97  .96743 1.9276 161.8 21.4 58.3  54
2023 01 28 08  08 30 34.510   +00 17 27.14  .96741 1.9276 161.8 21.4 59.5  54
2023 01 28 09  08 30 31.653   +00 18 31.35  .96739 1.9277 161.8 21.4 60.6  54
2023 01 28 10  08 30 28.795   +00 19 35.60  .96736 1.9277 161.8 21.4 61.8  54
2023 01 28 11  08 30 25.938   +00 20 39.87  .96734 1.9277 161.9 21.4 63.0  54
2023 01 28 12  08 30 23.081   +00 21 44.18  .96732 1.9278 161.9 21.4 64.2  54
2023 01 28 13  08 30 20.224   +00 22 48.52  .96730 1.9278 161.9 21.4 65.4  54
2023 01 28 14  08 30 17.367   +00 23 52.90  .96728 1.9279 161.9 21.4 66.6  53
2023 01 28 15  08 30 14.511   +00 24 57.30  .96726 1.9279 161.9 21.4 67.8  53
2023 01 28 16  08 30 11.655   +00 26 01.74  .96724 1.9279 162.0 21.4 69.0  53
2023 01 28 17  08 30 08.799   +00 27 06.21  .96723 1.9280 162.0 21.4 70.3  53
2023 01 28 18  08 30 05.943   +00 28 10.71  .96721 1.9280 162.0 21.4 71.5  53
2023 01 28 19  08 30 03.087   +00 29 15.25  .96719 1.9281 162.0 21.4 72.8  53
2023 01 28 20  08 30 00.232   +00 30 19.82  .96717 1.9281 162.0 21.4 74.0  53
2023 01 28 21  08 29 57.377   +00 31 24.41  .96716 1.9281 162.1 21.4 75.3  53
2023 01 28 22  08 29 54.523   +00 32 29.04  .96714 1.9282 162.1 21.4 76.6  53
2023 01 28 23  08 29 51.668   +00 33 33.70  .96713 1.9282 162.1 21.4 77.9  53
2023 01 29 00  08 29 48.814   +00 34 38.40  .96711 1.9283 162.1 21.4 79.2  53
2023 01 29 01  08 29 45.960   +00 35 43.12  .96710 1.9283 162.1 21.4 80.5  53
2023 01 29 02  08 29 43.107   +00 36 47.88  .96708 1.9283 162.1 21.4 81.8  53
2023 01 29 03  08 29 40.254   +00 37 52.66  .96707 1.9284 162.2 21.4 83.1  53
2023 01 29 04  08 29 37.401   +00 38 57.48  .96706 1.9284 162.2 21.4 84.5  53
2023 01 29 05  08 29 34.549   +00 40 02.33  .96705 1.9284 162.2 21.4 85.8  53
2023 01 29 06  08 29 31.697   +00 41 07.20  .96703 1.9285 162.2 21.4 87.2  53
2023 01 29 07  08 29 28.845   +00 42 12.11  .96702 1.9285 162.2 21.4 88.5  53
2023 01 29 08  08 29 25.994   +00 43 17.05  .96701 1.9286 162.3 21.4 89.9  53
2023 01 29 09  08 29 23.143   +00 44 22.02  .96700 1.9286 162.3 21.4 91.3  53
2023 01 29 10  08 29 20.292   +00 45 27.02  .96699 1.9286 162.3 21.4 92.7  53
2023 01 29 11  08 29 17.442   +00 46 32.05  .96698 1.9287 162.3 21.4 94.1  53
2023 01 29 12  08 29 14.592   +00 47 37.11  .96697 1.9287 162.3 21.4 95.5  53
2023 01 29 13  08 29 11.743   +00 48 42.20  .96697 1.9288 162.3 21.4 96.9  53
2023 01 29 14  08 29 08.894   +00 49 47.32  .96696 1.9288 162.4 21.4 98.3  53
2023 01 29 15  08 29 06.045   +00 50 52.47  .96695 1.9288 162.4 21.4 99.8  53
2023 01 29 16  08 29 03.197   +00 51 57.65  .96694 1.9289 162.4 21.4  101  53